Weather observations for the past three days for
St Clair County International Airport
Imperial (Metric)
Date Time (edt) Wind (mph) Vis. (mi.) Weather Sky Cond. Temperature (ºF) Relative Humidity Wind Chill (°F) Heat Index (°F) Pressure Precipitation (in)
Air Dwpt 6 hour altimeter (in) sea level (mb) 1 hr 3 hr 6 hr
Max. Min.
20 21:35 Calm 10.00 Fair CLR 62.6 57.2 83% 30.08 0.0
20 21:15 Calm 10.00 Fair CLR 64.4 57.2 78% 30.08 0.0
20 20:55 Calm 10.00 Fair CLR 66.2 57.2 73% 30.07 0.0
20 20:35 Calm 10.00 Fair CLR 68 55.4 64% 30.07 0.0
20 20:16 Calm 10.00 Fair CLR 69.8 57.2 64% 30.07 0.0
20 19:55 Calm 10.00 Fair CLR 71.6 59 65% 30.07 0.0
20 19:35 Calm 10.00 Fair CLR 75.2 59 57% 78 30.07 0.0
20 19:15 Calm 10.00 Fair CLR 77 53.6 44% 78 30.07 0.0
20 18:55 Calm 10.00 Fair CLR 77 51.8 42% 78 30.07 0.0
20 18:35 Calm 10.00 Fair CLR 77 51.8 42% 78 30.07 0.0
20 18:15 W 5 10.00 Fair CLR 78.8 51.8 39% 79 30.07 0.0
20 17:56 W 6 10.00 Fair CLR 78.8 53.6 42% 79 30.07 0.0
20 17:35 NW 5 10.00 Fair CLR 78.8 55.4 45% 79 30.07 0.0
20 17:15 Calm 10.00 Fair CLR 77 57.2 51% 79 30.08 0.0
20 16:55 W 3 10.00 Partly Cloudy SCT050 78.8 57.2 48% 80 30.08 0.0
20 16:35 NW 5 10.00 Partly Cloudy SCT050 78.8 59 51% 80 30.08 0.0
20 16:15 NW 3 10.00 Partly Cloudy SCT050 77 59 54% 79 30.09 0.0
20 15:55 NW 8 10.00 Partly Cloudy SCT050 78.8 59 51% 80 30.09 0.0
20 15:36 NW 5 10.00 Partly Cloudy SCT050 78.8 57.2 48% 80 30.09 0.0
20 15:15 W 3 10.00 Partly Cloudy SCT050 77 57.2 51% 79 30.09 0.0
20 14:55 NW 10 10.00 Partly Cloudy SCT050 78.8 57.2 48% 80 30.1 0.0
20 14:35 W 5 10.00 Mostly Cloudy BKN050 78.8 57.2 48% 80 30.1 0.0
20 14:15 W 6 10.00 Partly Cloudy SCT050 78.8 57.2 48% 80 30.1 0.0
20 13:55 Calm 10.00 Fair CLR 77 55.4 47% 79 30.11 0.0
20 13:35 NW 5 10.00 Partly Cloudy SCT049 77 55.4 47% 79 30.11 0.0
20 13:16 NW 3 10.00 Partly Cloudy SCT049 77 57.2 51% 79 30.11 0.0
20 12:55 W 7 10.00 Mostly Cloudy BKN047 77 57.2 51% 79 30.11 0.0
20 12:35 W 5 10.00 Partly Cloudy SCT047 77 57.2 51% 79 30.11 0.0
20 12:15 NW 5 10.00 Partly Cloudy SCT047 77 57.2 51% 79 30.11 0.0
20 11:55 W 5 10.00 Partly Cloudy SCT047 75.2 55.4 50% 78 30.11 0.0
20 11:35 Calm 10.00 Fair CLR 75.2 55.4 50% 78 30.11 0.0
20 11:15 NW 6 10.00 Fair CLR 75.2 57.2 54% 78 30.11 0.0
20 10:56 Calm 10.00 Fair CLR 73.4 59 61% 30.12 0.0
20 10:35 Calm 10.00 Fair CLR 73.4 59 61% 30.12 0.0
20 10:15 Calm 10.00 Fair CLR 73.4 59 61% 30.12 0.0
20 09:55 Calm 10.00 Fair CLR 71.6 59 65% 30.13 0.0
20 09:35 W 3 10.00 Fair CLR 69.8 59 69% 30.13 0.0
20 09:15 Calm 10.00 Fair CLR 68 59 73% 30.13 0.0
20 08:55 Calm 10.00 Fair CLR 66.2 60.8 83% 30.13 0.0
20 08:36 Calm 10.00 Fair CLR 66.2 60.8 83% 30.13 0.0
20 08:15 Calm 10.00 Fair CLR 62.6 62.6 100% 30.12 0.0
20 07:55 Calm 10.00 Fair CLR 60.8 60.8 100% 30.12 0.0
20 07:35 Calm 10.00 Fair CLR 59 59 100% 30.12 0.0
20 07:15 Calm 10.00 Fair CLR 57.2 57.2 100% 30.12 0.0
20 06:55 Calm 1.75 Fog/Mist VV007 55.4 55.4 100% 30.12 0.0
20 06:35 Calm 1.50 Fog/Mist VV007 55.4 53.6 94% 30.12 0.0
20 06:16 Calm 5.00 Fog/Mist CLR 55.4 53.6 94% 30.12 0.0
20 05:55 Calm 3.00 Fog/Mist CLR 55.4 55.4 100% 30.12 0.0
20 05:35 Calm 1.25 Fog/Mist VV007 55.4 53.6 94% 30.11 0.0
20 05:15 Calm 1.25 Fog/Mist VV007 55.4 55.4 100% 30.11 0.0
20 04:55 Calm 1.00 Fog/Mist VV007 55.4 55.4 100% 30.11 0.0
20 04:35 Calm 1.75 Fog/Mist VV007 55.4 55.4 100% 30.11 0.0
20 04:15 Calm 1.00 Fog/Mist VV007 55.4 55.4 100% 30.11 0.0
20 03:56 Calm 1.25 Fog/Mist VV007 55.4 55.4 100% 30.11 0.0
20 03:35 Calm 0.75 Fog/Mist VV005 57.2 55.4 94% 30.11 0.0
20 03:15 Calm 3.00 Fog/Mist CLR 57.2 57.2 100% 30.11 0.0
20 02:55 Calm 0.50 Fog VV005 57.2 57.2 100% 30.12 0.0
20 02:35 Calm 0.75 Fog/Mist VV005 57.2 57.2 100% 30.12 0.0
20 02:15 Calm 1.75 Fog/Mist VV007 57.2 57.2 100% 30.12 0.0
20 01:56 Calm 4.00 Fog/Mist CLR 57.2 57.2 100% 30.12 0.0
20 01:35 Calm 1.50 Fog/Mist VV007 57.2 57.2 100% 30.13 0.0
20 01:15 Calm 7.00 Fair CLR 59 57.2 94% 30.13 0.0
20 00:55 Calm 4.00 Fog/Mist CLR 59 57.2 94% 30.13 0.0
20 00:35 Calm 7.00 Fair CLR 59 59 100% 30.14 0.0
20 00:15 Calm 10.00 Fair CLR 59 59 100% 30.14 0.0
19 23:55 Calm 10.00 Fair CLR 60.8 59 94% 30.14 0.0
19 23:36 Calm 10.00 Fair CLR 60.8 59 94% 30.13 0.0
19 23:15 Calm 10.00 Fair CLR 60.8 59 94% 30.13 0.0
19 22:55 Calm 10.00 Fair CLR 60.8 59 94% 30.14 0.0
19 22:35 Calm 10.00 Fair CLR 60.8 59 94% 30.14 0.0
19 22:15 Calm 10.00 Fair CLR 62.6 59 88% 30.13 0.0
19 21:55 Calm 10.00 Fair CLR 62.6 59 88% 30.13 0.0
19 21:35 Calm 10.00 Partly Cloudy SCT060 64.4 60.8 88% 30.12 0.0
19 21:16 Calm 10.00 Partly Cloudy SCT060 66.2 60.8 83% 30.12 0.0
19 20:55 Calm 10.00 Partly Cloudy SCT060 66.2 62.6 88% 30.12 0.0
19 20:35 Calm 10.00 Mostly Cloudy BKN060 68 60.8 78% 30.12 0.0
19 20:15 Calm 10.00 Mostly Cloudy BKN060 69.8 60.8 73% 30.12 0.0
19 19:55 Calm 10.00 Mostly Cloudy BKN060 71.6 60.8 69% 30.12 0.0
19 19:35 Calm 10.00 Partly Cloudy SCT060 75.2 59 57% 78 30.12 0.0
19 19:15 S 3 10.00 Partly Cloudy SCT060 75.2 59 57% 78 30.12 0.0
19 18:56 Calm 10.00 Partly Cloudy SCT060 75.2 57.2 54% 78 30.12 0.0
19 18:35 SW 3 10.00 Partly Cloudy SCT060 77 55.4 47% 79 30.12 0.0
19 18:15 Calm 10.00 Mostly Cloudy BKN060 77 53.6 44% 78 30.12 0.0
19 17:55 Calm 10.00 Mostly Cloudy BKN060 75.2 55.4 50% 78 30.13 0.0
19 17:35 Calm 10.00 Partly Cloudy SCT060 75.2 55.4 50% 78 30.13 0.0
19 17:15 NW 6 10.00 Partly Cloudy SCT055 77 55.4 47% 79 30.14 0.0
19 16:55 Calm 10.00 Partly Cloudy SCT055 77 55.4 47% 79 30.14 0.0
19 16:35 NW 5 10.00 Mostly Cloudy BKN055 77 53.6 44% 78 30.14 0.0
19 16:15 Calm 10.00 Partly Cloudy SCT055 75.2 53.6 47% 78 30.15 0.0
19 15:55 Calm 10.00 Partly Cloudy SCT055 77 53.6 44% 78 30.15 0.0
19 15:35 Calm 10.00 Mostly Cloudy BKN055 75.2 55.4 50% 78 30.15 0.0
19 15:15 NW 5 10.00 Mostly Cloudy BKN055 78.8 55.4 45% 79 30.15 0.0
19 14:55 Calm 10.00 Partly Cloudy SCT055 77 55.4 47% 79 30.16 0.0
19 14:36 S 3 10.00 Fair CLR 75.2 55.4 50% 78 30.17 0.0
19 14:15 W 6 10.00 Partly Cloudy SCT050 77 55.4 47% 79 30.17 0.0
19 13:55 W 7 10.00 Mostly Cloudy SCT048 BKN050 75.2 55.4 50% 78 30.17 0.0
19 13:35 SW 7 10.00 Mostly Cloudy SCT050 BKN055 75.2 55.4 50% 78 30.18 0.0
19 13:15 SW 6 10.00 Partly Cloudy SCT050 75.2 53.6 47% 78 30.18 0.0
19 12:55 Calm 10.00 Partly Cloudy SCT048 SCT055 73.4 53.6 50% 30.19 0.0
19 12:35 Calm 10.00 Fair CLR 73.4 53.6 50% 30.19 0.0
19 12:16 NW 3 10.00 Partly Cloudy SCT047 SCT050 73.4 55.4 53% 30.2 0.0
19 11:55 W 6 10.00 Mostly Cloudy BKN045 73.4 55.4 53% 30.19 0.0
19 11:35 Calm 10.00 Partly Cloudy SCT043 71.6 53.6 53% 30.19 0.0
19 11:15 Calm 10.00 Partly Cloudy SCT041 71.6 53.6 53% 30.2 0.0
19 10:55 W 3 10.00 Fair CLR 71.6 55.4 57% 30.2 0.0
19 10:35 W 3 10.00 Fair CLR 71.6 57.2 61% 30.2 0.0
19 10:15 Calm 10.00 Fair CLR 69.8 57.2 64% 30.2 0.0
19 09:56 Calm 10.00 Fair CLR 69.8 57.2 64% 30.2 0.0
19 09:35 Calm 10.00 Fair CLR 68 59 73% 30.21 0.0
19 09:15 SW 3 10.00 Fair CLR 66.2 59 78% 30.21 0.0
19 08:55 SW 3 10.00 Partly Cloudy SCT002 64.4 59 83% 30.21 0.0
19 08:35 Calm 10.00 Fair CLR 62.6 59 88% 30.2 0.0
19 08:15 Calm 10.00 Fair CLR 60.8 59 94% 30.2 0.0
19 07:55 Calm 10.00 Fair CLR 59 57.2 94% 30.2 0.0
19 07:36 Calm 10.00 Fair CLR 55.4 55.4 100% 30.19 0.0
19 07:15 Calm 10.00 Fair CLR 53.6 53.6 100% 30.2 0.0
19 06:55 Calm 10.00 Fair CLR 51.8 51.8 100% 30.19 0.0
19 06:35 Calm 7.00 Fair CLR 51.8 51.8 100% 30.19 0.0
19 06:15 Calm 10.00 Fair CLR 51.8 51.8 100% 30.18 0.0
19 05:55 Calm 5.00 Fog/Mist CLR 51.8 51.8 100% 30.18 0.0
19 05:35 Calm 10.00 Fair CLR 51.8 51.8 100% 30.17 0.0
19 05:16 Calm 3.00 Fog/Mist CLR 51.8 51.8 100% 30.17 0.0
19 04:55 Calm 7.00 Fair CLR 51.8 51.8 100% 30.17 0.0
19 04:35 Calm 5.00 Fog/Mist CLR 51.8 51.8 100% 30.17 0.0
19 04:15 Calm 5.00 Fog/Mist CLR 51.8 51.8 100% 30.17 0.0
19 03:55 Calm 4.00 Fog/Mist CLR 51.8 51.8 100% 30.17 0.0
19 03:35 Calm 1.75 Fog/Mist VV007 51.8 51.8 100% 30.17 0.0
19 03:15 Calm 10.00 Fair CLR 51.8 51.8 100% 30.17 0.0
19 02:56 Calm 4.00 Fog/Mist CLR 51.8 51.8 100% 30.17 0.0
19 02:35 Calm 10.00 Fair CLR 53.6 53.6 100% 30.17 0.0
19 02:15 Calm 10.00 Fair CLR 53.6 53.6 100% 30.17 0.0
19 01:55 Calm 10.00 Fair CLR 53.6 53.6 100% 30.18 0.0
19 01:35 Calm 10.00 Fair CLR 53.6 53.6 100% 30.18 0.0
19 01:15 Calm 10.00 Fair CLR 53.6 53.6 100% 30.17 0.0
19 00:55 Calm 10.00 Fair CLR 53.6 53.6 100% 30.17 0.0
19 00:35 Calm 10.00 Fair CLR 53.6 53.6 100% 30.17 0.0
19 00:16 Calm 10.00 Fair CLR 55.4 53.6 94% 30.16 0.0
18 23:55 Calm 10.00 Fair CLR 55.4 53.6 94% 30.16 0.0
18 23:35 Calm 10.00 Fair CLR 55.4 53.6 94% 30.16 0.0
18 23:15 Calm 10.00 Fair CLR 55.4 53.6 94% 30.16 0.0
18 22:55 Calm 10.00 Fair CLR 55.4 53.6 94% 30.15 0.0
18 22:35 Calm 10.00 Fair CLR 55.4 53.6 94% 30.15 0.0
18 22:15 Calm 10.00 Fair CLR 57.2 55.4 94% 30.15 0.0
18 21:56 Calm 10.00 Fair CLR 57.2 55.4 94% 30.15 0.0
18 21:35 Calm 10.00 Fair CLR 57.2 55.4 94% 30.15 0.0
18 21:15 Calm 10.00 Fair CLR 59 55.4 88% 30.15 0.0
18 20:55 Calm 10.00 Fair CLR 60.8 55.4 83% 30.15 0.0
18 20:35 N 3 10.00 Fair CLR 64.4 53.6 68% 30.15 0.0
18 20:15 N 3 10.00 Fair CLR 66.2 53.6 64% 30.15 0.0
18 19:55 N 3 10.00 Fair CLR 66.2 53.6 64% 30.15 0.0
18 19:36 N 5 10.00 Fair CLR 66.2 53.6 64% 30.15 0.0
18 19:15 NE 6 10.00 Fair CLR 66.2 53.6 64% 30.15 0.0
18 18:55 NE 8 10.00 Fair CLR 68 53.6 60% 30.15 0.0
18 18:35 N 7 10.00 Fair CLR 68 53.6 60% 30.14 0.0
18 18:15 NE 8 10.00 Fair CLR 68 53.6 60% 30.14 0.0
18 17:55 N 6 10.00 Fair CLR 69.8 55.4 60% 30.14 0.0
18 17:35 NE 7 G 17 10.00 Fair CLR 69.8 53.6 57% 30.14 0.0
18 17:16 NE 9 10.00 Fair CLR 69.8 53.6 57% 30.14 0.0
18 16:55 NE 7 10.00 Fair CLR 68 53.6 60% 30.14 0.0
18 16:35 NE 10 10.00 Fair CLR 69.8 53.6 57% 30.14 0.0
18 16:15 N 12 10.00 Fair CLR 69.8 53.6 57% 30.14 0.0
18 15:55 N 9 10.00 Fair CLR 69.8 53.6 57% 30.15 0.0
18 15:35 NE 12 G 21 10.00 Partly Cloudy SCT036 SCT043 69.8 53.6 57% 30.15 0.0
18 15:15 N 12 G 16 10.00 Partly Cloudy SCT055 69.8 55.4 60% 30.15 0.0
18 14:56 N 9 G 17 10.00 Partly Cloudy SCT055 69.8 55.4 60% 30.15 0.0
18 14:35 NE 14 G 18 10.00 Partly Cloudy SCT060 69.8 53.6 57% 30.15 0.0
18 14:15 NE 13 10.00 Mostly Cloudy SCT034 BKN060 69.8 55.4 60% 30.15 0.0
18 13:55 N 9 G 13 10.00 Mostly Cloudy BKN060 68 55.4 64% 30.14 0.0
18 13:35 NE 10 10.00 Mostly Cloudy SCT036 SCT044 BKN060 68 55.4 64% 30.14 0.0
18 13:15 N 10 10.00 Overcast BKN028 BKN037 OVC050 64.4 55.4 73% 30.15 0.0
18 12:55 N 7 10.00 Overcast SCT028 BKN049 OVC060 66.2 55.4 68% 30.14 0.0
18 12:36 N 7 10.00 Overcast SCT026 BKN040 OVC055 64.4 55.4 73% 30.14 0.0
18 12:15 N 10 G 16 10.00 Overcast SCT031 BKN048 OVC060 66.2 55.4 68% 30.14 0.0
18 11:55 N 6 10.00 Overcast SCT035 SCT044 OVC050 66.2 53.6 64% 30.13 0.0
18 11:35 N 10 G 16 10.00 Overcast BKN033 OVC048 68 55.4 64% 30.12 0.0
18 11:15 NW 5 10.00 Overcast BKN030 BKN040 OVC050 66.2 55.4 68% 30.12 0.0
18 10:55 NW 10 10.00 Overcast BKN027 BKN035 OVC044 68 57.2 69% 30.11 0.0
18 10:35 N 8 G 16 10.00 Overcast SCT023 BKN033 OVC043 68 57.2 69% 30.11 0.0
18 10:16 NW 7 10.00 Mostly Cloudy BKN023 BKN033 68 59 73% 30.11 0.0
18 09:55 NW 10 10.00 Mostly Cloudy BKN021 66.2 57.2 73% 30.1 0.0
18 09:35 N 7 10.00 Partly Cloudy SCT021 64.4 57.2 78% 30.1 0.0
18 09:15 N 7 10.00 Partly Cloudy SCT019 66.2 57.2 73% 30.09 0.0
18 08:55 N 6 10.00 Fair CLR 64.4 57.2 78% 30.09 0.0
18 08:35 NW 6 10.00 Fair CLR 62.6 57.2 83% 30.09 0.0
18 08:15 NW 5 10.00 Fair CLR 62.6 57.2 83% 30.08 0.0
18 07:56 NW 6 10.00 Fair CLR 60.8 57.2 88% 30.08 0.0
18 07:35 NW 5 10.00 Fair CLR 60.8 57.2 88% 30.07 0.0
18 07:15 Calm 10.00 Fair CLR 59 57.2 94% 30.07 0.0
18 06:55 NW 3 10.00 Fair CLR 59 55.4 88% 30.06 0.0
18 06:35 NW 3 10.00 Fair CLR 57.2 55.4 94% 30.06 0.0
18 06:15 NW 3 10.00 Fair CLR 57.2 55.4 94% 30.05 0.0
18 05:55 Calm 10.00 Fair CLR 57.2 55.4 94% 30.05 0.0
18 04:47 NW 5 10.00 Fair CLR 59 55.4 88% 30.03 0.0
17 23:15 Calm 10.00 Partly Cloudy SCT050 62.6 60.8 94% 29.98 0.0
17 22:55 Calm 10.00 Partly Cloudy SCT075 64.4 59 83% 29.97 0.0
17 22:36 N 3 10.00 Partly Cloudy SCT075 64.4 60.8 88% 29.97 0.0
17 22:15 N 3 10.00 Partly Cloudy SCT065 SCT085 64.4 60.8 88% 29.97 0.0
17 21:55 Calm 10.00 Overcast BKN060 BKN070 OVC085 64.4 62.6 94% 29.96 0.0
Date Time (edt) Wind (mph) Vis. (mi.) Weather Sky Cond. Air Dwpt Max. Min. Relative Humidity Wind Chill (°F) Heat Index (°F) altimeter (in) sea level (mb) 1 hr 3 hr 6 hr
6 hour
Temperature (ºF) Pressure Precipitation (in)